DW7857 Weather Reports


time (UTC)temp
C
wind
direction
speed
KPH
gust
KPH
rain 1hr
cm
rain 24hr
cm
rain mn
cm
humidity
%
barometer
mb
20260505015403 11 45 1.6 3.2 0.00 0.00 0.00 91 1017.3
20260505014503 11 54 1.6 3.2 0.00 0.00 0.00 91 1017.3
20260505013813 11 67 1.6 3.2 0.00 0.00 0.00 91 1017.5
20260505012703 11 48 1.6 3.2 0.00 0.00 0.00 91 1017.5
20260505011803 11 67 1.6 3.2 0.00 0.00 0.00 91 1017.3
20260505010903 11 29 1.6 3.2 0.00 0.00 0.00 91 1017.6
20260505010003 11 35 3.2 3.2 0.00 0.00 0.00 91 1017.5
20260505005403 11 63 1.6 3.2 0.00 0.00 0.00 91 1017.5
20260505004503 11 22 3.2 4.8 0.00 0.00 0.00 92 1017.7
20260505003812 11 6 3.2 3.2 0.00 0.00 0.00 92 1017.7
20260505002914 11 315 3.2 3.2 0.00 0.00 0.00 92 1017.8
20260505001803 11 334 1.6 4.8 0.00 0.00 0.00 92 1017.6
20260505000903 11 6 1.6 3.2 0.00 0.00 0.00 92 1017.8
20260505000003 11 54 1.6 3.2 0.00 0.00 0.00 92 1018.1
20260504235613 11 48 1.6 3.2 0.00 0.00 0.00 92 1018.2
20260504234503 11 34 1.6 3.2 0.00 0.00 0.00 92 1018.1
20260504233603 11 66 3.2 4.8 0.00 0.00 0.00 91 1018.0
20260504232703 11 53 3.2 4.8 0.00 0.00 0.00 91 1018.1
20260504232013 11 19 1.6 3.2 0.00 0.00 0.00 91 1017.8
20260504230903 11 140 1.6 3.2 0.00 0.00 0.00 91 1018.1
20260504230004 11 91 1.6 3.2 0.00 0.00 0.00 91 1017.8
20260504225403 11 6 3.2 8.0 0.00 0.00 0.00 91 1017.5
20260504224503 11 327 4.8 8.0 0.00 0.00 0.00 91 1017.5
20260504223603 12 27 3.2 4.8 0.00 0.00 0.00 90 1017.8
20260504222703 12 57 4.8 6.4 0.00 0.00 0.00 90 1018.0
20260504221803 12 61 3.2 6.4 0.00 0.00 0.00 90 1017.9
20260504220903 12 44 3.2 4.8 0.00 0.00 0.00 90 1017.9
20260504220003 12 68 3.2 6.4 0.00 0.00 0.00 86 1018.0
20260504215403 12 50 3.2 6.4 0.00 0.00 0.00 86 1018.1
20260504214503 12 33 3.2 4.8 0.00 0.00 0.00 86 1018.3
20260504213603 12 334 3.2 3.2 0.00 0.00 0.00 86 1018.1
20260504212703 12 59 3.2 3.2 0.00 0.00 0.00 85 1018.3
20260504211803 12 60 1.6 3.2 0.00 0.00 0.00 85 1018.1
20260504210903 12 62 1.6 3.2 0.00 0.00 0.00 84 1018.4
20260504210004 12 45 1.6 3.2 0.00 0.00 0.00 84 1018.0
20260504205403 12 48 3.2 3.2 0.00 0.00 0.00 84 1018.2
20260504204503 12 45 3.2 3.2 0.00 0.00 0.00 84 1018.3
20260504203603 12 25 3.2 3.2 0.00 0.00 0.00 84 1018.4
20260504202703 13 59 3.2 3.2 0.00 0.00 0.00 83 1018.2
20260504201803 13 43 3.2 3.2 0.00 0.00 0.00 83 1018.3
20260504200903 13 45 1.6 3.2 0.00 0.00 0.00 82 1018.0
20260504200003 13 45 1.6 3.2 0.00 0.00 0.00 82 1018.0
20260504195403 13 45 1.6 3.2 0.00 0.00 0.00 82 1017.9
20260504194503 13 71 1.6 3.2 0.00 0.00 0.00 82 1017.9
20260504193812 13 76 3.2 4.8 0.00 0.00 0.00 81 1017.8
20260504192703 13 65 3.2 4.8 0.00 0.00 0.00 81 1017.7
20260504191803 13 53 3.2 4.8 0.00 0.00 0.00 81 1017.5
20260504190903 13 106 3.2 3.2 0.00 0.00 0.00 81 1017.6
20260504190003 13 56 3.2 6.4 0.00 0.00 0.00 80 1017.6
20260504185403 14 58 3.2 6.4 0.00 0.00 0.00 80 1017.7
20260504184504 14 40 4.8 6.4 0.00 0.00 0.00 80 1017.4
20260504183603 14 73 6.4 9.7 0.00 0.00 0.00 79 1017.5
20260504182703 14 52 4.8 8.0 0.00 0.00 0.00 79 1017.8
20260504181803 14 61 6.4 9.7 0.00 0.00 0.00 78 1017.2
20260504180903 14 86 8.0 9.7 0.00 0.00 0.00 78 1017.4
20260504180214 15 64 6.4 9.7 0.00 0.00 0.00 77 1017.2
20260504175403 15 61 6.4 11.3 0.00 0.00 0.00 77 1017.3
20260504174503 15 52 6.4 11.3 0.00 0.00 0.00 77 1017.4
20260504173603 15 79 6.4 11.3 0.00 0.00 0.00 77 1017.3
20260504172703 15 33 6.4 6.4 0.00 0.00 0.00 76 1017.4
20260504171803 15 65 6.4 6.4 0.00 0.00 0.00 76 1017.2
20260504170903 15 3 6.4 12.9 0.00 0.00 0.00 77 1017.2
20260504170213 15 48 6.4 6.4 0.00 0.00 0.00 78 1017.2
20260504151113 19 219 8.0 9.7 0.00 0.00 0.00 53 1017.1
20260504140903 19 205 9.7 17.7 0.00 0.00 0.00 52 1017.0
20260504100212 17 84 4.8 6.4 0.00 0.00 0.00 60 1017.6
20260504081803 16 214 3.2 3.2 0.00 0.00 0.00 67 1017.2
20260504080903 16 247 1.6 3.2 0.00 0.00 0.00 68 1017.2
20260504070213 15 171 4.8 6.4 0.00 0.00 0.00 78 1016.9
20260504050003 10 225 0.0 1.6 0.00 0.00 0.00 94 1015.6
20260504045403 10 0 0.0 0.0 0.00 0.00 0.00 94 1015.5
20260504044503 10 225 0.0 1.6 0.00 0.00 0.00 94 1015.3
20260504043603 10 225 0.0 3.2 0.00 0.00 0.00 95 1015.4
20260504042703 11 225 0.0 1.6 0.00 0.00 0.00 95 1015.5
20260504041803 11 225 0.0 3.2 0.00 0.00 0.00 95 1015.3
20260504040903 11 184 1.6 3.2 0.00 0.00 0.00 95 1015.5
20260504040003 11 167 1.6 1.6 0.00 0.00 0.00 95 1015.4
20260504035403 11 204 1.6 3.2 0.00 0.00 0.00 95 1015.5
20260504034713 11 207 1.6 3.2 0.00 0.00 0.00 95 1015.3
20260504033812 11 202 1.6 3.2 0.00 0.00 0.00 95 1015.5
20260504032703 11 197 1.6 3.2 0.00 0.00 0.00 95 1015.5
20260504031803 11 198 1.6 3.2 0.00 0.00 0.00 95 1015.6
20260504030903 11 174 1.6 3.2 0.00 0.00 0.00 95 1015.6
20260504030003 11 176 1.6 3.2 0.00 0.00 0.00 95 1015.6
20260504025403 11 180 0.0 1.6 0.00 0.00 0.00 95 1015.6
20260504024503 11 0 0.0 0.0 0.00 0.00 0.00 95 1015.5
20260504023603 11 180 1.6 3.2 0.00 0.00 0.00 95 1015.5
20260504022703 11 134 0.0 3.2 0.00 0.00 0.00 94 1015.7
20260504021803 11 159 1.6 3.2 0.00 0.00 0.00 94 1015.3
20260504020903 11 143 1.6 3.2 0.00 0.00 0.00 94 1015.2
20260504020003 11 169 1.6 3.2 0.00 0.00 0.00 94 1015.5